Terug naar catalogus

STARLINK-11718

ActiefCommunicatieVLEO
NORAD 64132·PAYLOAD·🇺🇸 United States

Gelanceerd May 24, 2025 vanaf Cape Canaveral Space Force Station

Loading…

Volgende Passages (komende 24 uur)

TLE

VersSource: CelesTrak SupGP

Epoch: Sep 15, 2026, 02:14 UTC

1 64132C 25111K   26258.09354167  .00054830  00000+0  42570-3 0  2582
2 64132  43.0005 272.5110 0001375 267.3561  96.2189 15.70821011    16

Volg STARLINK-11718 in realtime met AllMySat

Download on the App Store